[[{"header":{"parameterUnit":"m.s-1","parameterCategory":1,"la1":30.2992,"la2":30.254,"lo1":-89.0895,"lo2":-89.0443,"dy":0.0025,"dx":0.0025,"nx":19,"ny":19,"refTime":"2026-05-12T09:00:00:Z","depth":0,"parameterNumber":2,"parameterNumberName":"U-component_of_WINDS"},"data":[0,0,0,-2.1461,-2.1462,-2.1506,-2.1506,-2.1575,-2.1576,0,0,0,0,0,0,0,0,0,0,0,-2.1453,-2.1454,-2.146,-2.1462,-2.1506,-2.1506,-2.1575,-2.1576,0,0,0,0,0,0,0,0,0,0,0,-2.1453,-2.1454,-2.1455,-2.1462,-2.1506,-2.1506,-2.1575,-2.1537,0,0,0,0,0,0,0,0,0,0,-2.1492,-2.1491,-2.1454,-2.1455,-2.1462,-2.1506,-2.1506,-2.1535,-2.154,-2.156,0,-2.1578,0,-2.1578,-2.1581,-2.1581,0,0,0,-2.1457,-2.1487,-2.1494,-2.1455,-2.1463,-2.1506,-2.1485,-2.1538,-2.1543,-2.1565,-2.1579,-2.1581,-2.1579,-2.1582,-2.1582,-2.171,-2.1711,0,0,-2.1455,-2.1465,-2.1491,-2.1497,-2.149,-2.1484,-2.1486,-2.154,-2.1556,-2.1579,-2.1583,-2.158,-2.1582,-2.1583,-2.171,-2.1711,0,0,0,-2.1451,-2.1463,-2.1468,-2.1495,-2.1502,-2.1485,-2.1488,-2.1554,-2.1554,-2.1583,-2.1581,-2.1583,-2.1584,-2.1709,-2.171,-2.176,0,0,0,-2.1449,-2.1461,-2.1467,-2.1474,-2.1501,-2.1528,-2.1501,-2.1551,-2.1556,-2.1581,-2.1583,-2.1584,-2.1708,-2.1709,-2.1757,-2.1783,0,0,0,-2.1448,-2.146,-2.1469,-2.1474,-2.1494,-2.1527,-2.1531,-2.1552,-2.1556,-2.1581,-2.1585,-2.1707,-2.1709,-2.1754,-2.1778,-2.1822,0,0,0,-2.1451,-2.1512,-2.147,-2.1538,-2.1493,-2.1557,-2.153,-2.1577,-2.1605,-2.1583,-2.1708,-2.171,-2.1753,-2.1775,-2.1819,-2.1862,-2.188,0,0,-2.1534,-2.1523,-2.1562,-2.1525,-2.1599,-2.1549,-2.1631,-2.1647,-2.1641,-2.1688,-2.1691,-2.1758,-2.1778,-2.1821,-2.1974,-2.1988,0,0,0,-2.1592,-2.1621,-2.1638,-2.1665,-2.1679,-2.1694,-2.1696,-2.1703,-2.1742,-2.1667,-2.1784,-2.1795,-2.182,-2.1841,-2.1853,-2.1875,-2.1719,-2.1719,-2.1718,-2.1726,-2.1714,-2.1779,-2.1773,-2.18,-2.1802,-2.1823,-2.1832,-2.1812,-2.184,-2.1855,-2.1949,-2.1973,-2.1982,-2.2005,-2.1874,-2.1875,-2.1875,-2.1875,-2.1849,-2.1889,-2.1861,-2.1914,-2.1902,-2.1947,-2.1952,-2.1936,-2.1978,-2.1936,-2.1958,-2.1917,-2.1998,-2.2018,-2.1879,-2.1878,-2.1877,-2.1877,-2.1877,-2.1938,-2.1955,-2.1961,-2.2,-2.2031,-2.2022,-2.2064,-2.205,-2.2038,-2.2059,-2.2074,-2.2073,-2.2073,-2.2066,-2.2067,-2.2067,-2.2067,-2.2068,-2.2068,-2.2028,-2.2033,-2.2069,-2.2089,-2.2106,-2.2126,-2.2129,-2.2145,-2.216,-2.2147,-2.2147,-2.2126,-2.2007,-2.198,-2.2073,-2.2072,-2.2071,-2.2071,-2.207,-2.2162,-2.213,-2.2186,-2.2202,-2.2226,-2.2259,-2.224,-2.2275,-2.2286,-2.2307,-2.2281,-2.2194,-2.2182,-2.2172,-2.215,-2.2281,-2.2281,-2.2281,-2.2281,-2.2239,-2.2231,-2.2286,-2.2313,-2.2339,-2.2328,-2.2393,-2.2397,-2.2395,-2.2402,-2.238,-2.2348,-2.2338,-2.2332,-2.2319,-2.2297,-2.2463,-2.2464,-2.2464,-2.2322,-2.2316,-2.2374,-2.2372,-2.2389,-2.2405,-2.2467,-2.2501,-2.2492,-2.2471,-2.2408,-2.24,-2.2347,-2.233,-2.2311,-2.229,-2.225,0,0]},{"header":{"parameterUnit":"m.s-1","parameterCategory":1,"la1":30.2992,"la2":30.254,"lo1":-89.0895,"lo2":-89.0443,"dy":0.0025,"dx":0.0025,"nx":19,"ny":19,"refTime":"2026-05-12T09:00:00:Z","depth":0,"parameterNumber":3,"parameterNumberName":"V-component_of_WINDS"},"data":[0,0,0,-2.1941,-2.1941,-2.194,-2.194,-2.1944,-2.1944,0,0,0,0,0,0,0,0,0,0,0,-2.1944,-2.1944,-2.1941,-2.1941,-2.194,-2.194,-2.1944,-2.1944,0,0,0,0,0,0,0,0,0,0,0,-2.1944,-2.1944,-2.1944,-2.1941,-2.194,-2.194,-2.1944,-2.1943,0,0,0,0,0,0,0,0,0,0,-2.1942,-2.1948,-2.1944,-2.1944,-2.1941,-2.194,-2.194,-2.1942,-2.1943,-2.1946,0,-2.195,0,-2.1947,-2.1944,-2.1944,0,0,0,-2.1938,-2.1948,-2.1945,-2.1944,-2.1941,-2.194,-2.194,-2.1942,-2.1943,-2.1946,-2.195,-2.195,-2.1947,-2.1944,-2.1945,-2.1973,-2.1973,0,0,-2.1939,-2.1945,-2.1945,-2.1945,-2.1946,-2.194,-2.194,-2.1943,-2.1947,-2.195,-2.195,-2.1947,-2.1945,-2.1945,-2.1973,-2.1973,0,0,0,-2.194,-2.1945,-2.1942,-2.1945,-2.1945,-2.194,-2.194,-2.1947,-2.1945,-2.195,-2.1947,-2.1945,-2.1945,-2.1972,-2.1973,-2.1993,0,0,0,-2.194,-2.1946,-2.1942,-2.1946,-2.1945,-2.1946,-2.1944,-2.1945,-2.1945,-2.1947,-2.1945,-2.1945,-2.1972,-2.1973,-2.1991,-2.2001,0,0,0,-2.1943,-2.1946,-2.1947,-2.1947,-2.1947,-2.1946,-2.1944,-2.1945,-2.1944,-2.1944,-2.1945,-2.1972,-2.1972,-2.199,-2.1999,-2.2012,0,0,0,-2.1947,-2.1963,-2.1947,-2.1964,-2.1947,-2.1957,-2.1944,-2.1952,-2.1954,-2.1945,-2.1972,-2.1973,-2.199,-2.1998,-2.2011,-2.2026,-2.2032,0,0,-2.1971,-2.1966,-2.1976,-2.1962,-2.1977,-2.1957,-2.1975,-2.1971,-2.1964,-2.197,-2.1971,-2.1992,-2.1999,-2.2012,-2.206,-2.2065,0,0,0,-2.1985,-2.1993,-2.1995,-2.1999,-2.1997,-2.1996,-2.1989,-2.1987,-2.1992,-2.1969,-2.1998,-2.2003,-2.201,-2.2017,-2.2021,-2.2028,-2.1975,-2.1975,-2.1975,-2.2029,-2.2021,-2.2037,-2.2029,-2.2032,-2.2025,-2.2028,-2.2025,-2.2014,-2.2021,-2.2024,-2.2054,-2.2062,-2.2065,-2.2072,-2.2029,-2.2029,-2.2029,-2.2029,-2.2065,-2.2075,-2.2061,-2.2072,-2.2064,-2.2072,-2.2066,-2.2059,-2.2066,-2.2051,-2.2057,-2.2044,-2.2071,-2.2077,-2.203,-2.203,-2.203,-2.203,-2.203,-2.2094,-2.2098,-2.2096,-2.2102,-2.2107,-2.2098,-2.2106,-2.2097,-2.2088,-2.2094,-2.2097,-2.2096,-2.2097,-2.2095,-2.2095,-2.2095,-2.2096,-2.2096,-2.2096,-2.2127,-2.2124,-2.2133,-2.2133,-2.2135,-2.2136,-2.2129,-2.2131,-2.213,-2.2123,-2.2123,-2.2114,-2.2074,-2.2066,-2.2097,-2.2097,-2.2097,-2.2097,-2.2097,-2.217,-2.2159,-2.2172,-2.2174,-2.2174,-2.2181,-2.2169,-2.2173,-2.2173,-2.2178,-2.2166,-2.2138,-2.2132,-2.2129,-2.2122,-2.2167,-2.2167,-2.2167,-2.2167,-2.2197,-2.2193,-2.2206,-2.221,-2.2213,-2.2204,-2.222,-2.2215,-2.2208,-2.2207,-2.2199,-2.2188,-2.2185,-2.2182,-2.2177,-2.2171,-2.2227,-2.2227,-2.2227,-2.2224,-2.2221,-2.2236,-2.223,-2.2229,-2.2229,-2.2245,-2.225,-2.2239,-2.2229,-2.2207,-2.2205,-2.2188,-2.2182,-2.2173,-2.2166,-2.2155,0,0]}]]